"2010-04-01 00:00:00",1811797,1.243,20.87,12.52,0.567,7.283,103.9975,9.51,10.47,50.17,0,110.4,13.4,10.29,342.9
"2010-04-01 00:00:30",1811798,2.85,28.4,6.871,1.243,8.26,104.0226,9.57,10.54,50.1,0,110.4,13.36,10.36,350.4
"2010-04-01 00:01:00",1811799,4.704,21.27,8.4,1.082,11.94,104.0372,9.61,10.8,50.12,0,110.4,13.36,10.39,343.3
"2010-04-01 00:01:30",1811800,3.947,26.53,6.256,1.194,10.81,104.0609,9.67,10.87,49.93,0,110.4,13.36,10.46,348.5
"2010-04-01 00:02:00",1811801,3.057,9.33,15.04,1.709,9.19,104.0832,9.73,10.65,49.38,0,110.4,13.36,10.51,331.3
"2010-04-01 00:02:30",1811802,2.629,357.8,6.763,0.752,7.292,104.0947,9.76,10.63,49.28,0,110.4,13.39,10.54,319.8
"2010-04-01 00:03:00",1811803,4.112,3.033,5.902,1.261,9.77,104.1038,9.78,10.81,49.43,0,110.4,13.35,10.57,325.0
"2010-04-01 00:03:30",1811804,1.247,5.489,8.17,0.631,8.11,104.1286,9.84,10.7,49.15,0,110.4,13.36,10.63,327.5
"2010-04-01 00:04:00",1811805,1.688,358.4,6.111,0.346,7.935,104.1286,9.84,10.74,49,0,110.4,13.39,10.63,320.4
"2010-04-01 00:04:30",1811806,1.84,10.27,11.28,1.105,8.86,104.1286,9.84,10.77,48.85,0,110.4,13.36,10.63,332.3
"2010-04-01 00:05:00",1811807,2.773,15.57,13.69,1.569,10.87,104.1348,9.86,10.96,48.91,0,110.4,13.35,10.65,337.6
"2010-04-01 00:05:30",1811808,2.97,18.98,13.16,1.379,11.2,104.1543,9.91,11.02,48.85,0,110.4,13.35,10.70,341.0
"2010-04-01 00:06:00",1811809,1.426,10.63,11.44,0.573,7.477,104.1616,9.93,10.84,48.55,0,110.4,13.39,10.71,332.6
"2010-04-01 00:06:30",1811810,0.919,359,13.96,0.428,7.545,104.1585,9.92,10.86,48.64,0,110.4,13.39,10.71,321.0
"2010-04-01 00:07:00",1811811,2.077,9.47,12.99,1.544,9.83,104.1416,9.88,11.02,48.91,0,110.4,13.35,10.66,331.5
"2010-04-01 00:07:30",1811812,1.134,11.42,12.58,0.451,7.299,104.1373,9.87,10.86,48.79,0,110.4,13.39,10.65,333.4
"2010-04-01 00:08:00",1811813,2.052,353.7,13.21,0.688,7.144,104.1472,9.89,10.87,48.66,0,110.4,13.39,10.68,315.7
"2010-04-01 00:08:30",1811814,1.498,359.3,8.65,0.432,7.457,104.161,9.93,10.96,48.49,0,110.4,13.39,10.71,321.3
"2010-04-01 00:09:00",1811815,2.231,16.59,9.93,1.205,10.06,104.1624,9.93,10.95,48.24,0,110.4,13.35,10.72,338.6
"2010-04-01 00:09:30",1811816,1.326,6.721,14.73,0.555,8.55,104.1621,9.93,11.01,48.24,0,110.4,13.39,10.72,328.7
"2010-04-01 00:10:00",1811817,3.407,10.75,12.05,1.451,10.07,104.1624,9.93,11.02,48.04,0,110.4,13.35,10.72,332.8
"2010-04-01 00:10:30",1811818,3.772,8.24,12.94,1.204,10.99,104.1624,9.93,11.09,48.02,0,110.4,13.35,10.72,330.2
"2010-04-01 00:11:00",1811819,1.575,1.542,8.2,0.36,7.328,104.1624,9.93,10.99,47.81,0,110.4,13.39,10.72,323.5
"2010-04-01 00:11:30",1811820,1.552,350,10.65,0.2,6.695,104.1624,9.93,10.92,47.71,0,110.4,13.39,10.72,312.0
"2010-04-01 00:12:00",1811821,1.708,356.5,7.279,0.211,6.71,104.1624,9.93,10.93,47.66,0,110.4,13.39,10.72,318.5
"2010-04-01 00:12:30",1811822,1.668,2.879,9.17,0.664,8.02,104.1624,9.93,11.1,47.75,0,110.4,13.36,10.72,324.9
"2010-04-01 00:13:00",1811823,1.926,25.14,11.47,1.257,8.88,104.1624,9.93,10.97,47.58,0,110.4,13.35,10.72,347.1
"2010-04-01 00:13:30",1811824,0.574,11.93,11.25,0.239,7.671,104.1624,9.93,10.96,47.59,0,110.4,13.39,10.72,333.9
"2010-04-01 00:14:00",1811825,0.836,17.22,11.08,0.232,7.374,104.1624,9.93,10.95,47.57,0,110.4,13.39,10.72,339.2
"2010-04-01 00:14:30",1811826,0.653,2.328,20.26,0.245,7.592,104.1624,9.93,10.95,47.4,0,110.4,13.38,10.72,324.3
"2010-04-01 00:15:00",1811827,1.156,319,7.556,0.136,7.402,104.1624,9.93,10.97,47.38,0,110.4,13.38,10.72,281.0
"2010-04-01 00:15:30",1811828,2.751,333.6,14.58,1.321,12.04,104.1624,9.93,11.25,47.71,0,110.4,13.35,10.72,295.6
"2010-04-01 00:16:00",1811829,2.784,335.9,10.22,1.061,12.32,104.1624,9.93,11.23,47.67,0,110.4,13.35,10.72,297.9
"2010-04-01 00:16:30",1811830,0.531,24.39,27.35,0.86,8.32,104.1624,9.93,11.1,47.46,0,110.4,13.34,10.72,346.4
"2010-04-01 00:17:00",1811831,1.137,29.72,9.98,0.127,6.547,104.1624,9.93,10.95,47.22,0,110.4,13.38,10.72,351.7
"2010-04-01 00:17:30",1811832,1.009,21.56,6.178,0.284,6.577,104.1647,9.94,10.96,47.21,0,110.4,13.38,10.72,343.6
"2010-04-01 00:18:00",1811833,0.523,11.2,15.31,0.168,6.947,104.1768,9.97,10.95,47.19,0,110.4,13.38,10.75,333.2
"2010-04-01 00:18:30",1811834,0.424,5.366,13.49,0.232,7.071,104.1878,9.99,10.97,47.27,0,110.4,13.38,10.78,327.4
"2010-04-01 00:19:00",1811835,0.761,15.43,6.241,0.114,6.818,104.194,10.01,10.96,47.3,0,110.4,13.39,10.80,337.4
"2010-04-01 00:19:30",1811836,0.747,12.42,9.96,0.153,7.125,104.1963,10.02,10.98,47.29,0,110.4,13.39,10.80,334.4
"2010-04-01 00:20:00",1811837,0.788,0.307,12.29,0.199,7.595,104.1963,10.02,10.99,47.31,0,110.4,13.39,10.80,322.3
"2010-04-01 00:20:30",1811838,0.671,351.9,5.643,0.106,7.759,104.1963,10.02,11.01,47.27,0,110.4,13.39,10.80,313.9
"2010-04-01 00:21:00",1811839,1.26,343.7,8.92,1.111,9.39,104.1959,10.02,11.17,47.34,0,110.4,13.35,10.80,305.7
"2010-04-01 00:21:30",1811840,1.494,1.841,8.26,1.343,10.3,104.2165,10.07,11.04,47.13,0,110.4,13.35,10.85,323.8
"2010-04-01 00:22:00",1811841,2.519,3.143,18.38,1.31,12.57,104.2212,10.08,11.35,47.3,0,110.4,13.35,10.87,325.1
"2010-04-01 00:22:30",1811842,3.047,4.783,14.86,1.022,12.78,104.2231,10.08,11.28,47.09,0,110.4,13.35,10.87,326.8
"2010-04-01 00:23:00",1811843,1.444,348.6,5.876,0.164,7.628,104.2257,10.09,11.09,46.73,0,110.4,13.38,10.88,310.6
"2010-04-01 00:23:30",1811844,1.889,346.4,4.321,0.204,6.86,104.2245,10.09,11.07,46.62,0,110.4,13.38,10.88,308.4
"2010-04-01 00:24:00",1811845,1.875,343.1,4.41,0.128,6.68,104.2231,10.08,11.08,46.71,0,110.4,13.38,10.87,305.1
"2010-04-01 00:24:30",1811846,1.808,337,4.96,0.192,6.724,104.226,10.09,11.1,46.66,0,110.4,13.38,10.88,299.0
"2010-04-01 00:25:00",1811847,1.226,348.4,8.03,0.274,7.358,104.2222,10.08,11.1,46.65,0,110.4,13.39,10.87,310.4
"2010-04-01 00:25:30",1811848,1.52,350.4,4.896,0.198,7.531,104.2204,10.08,11.09,46.67,0,110.4,13.39,10.86,312.4
"2010-04-01 00:26:00",1811849,2.049,358.6,10.08,0.799,8.55,104.2225,10.08,11.11,46.61,0,110.4,13.35,10.87,320.6
"2010-04-01 00:26:30",1811850,2.315,16.17,15.08,1.263,11.52,104.2228,10.08,11.32,46.85,0,110.4,13.35,10.87,338.2
"2010-04-01 00:27:00",1811851,2.786,352,11.17,1.326,10.55,104.2263,10.09,11.26,46.8,0,110.4,13.35,10.88,314.0
"2010-04-01 00:27:30",1811852,2.048,357.3,5.852,1.242,8.95,104.2257,10.09,11.28,46.82,0,110.4,13.35,10.88,319.3
"2010-04-01 00:28:00",1811853,1.555,15.16,10.63,1.233,8.56,104.2269,10.09,11.19,46.64,0,110.4,13.35,10.88,337.2
"2010-04-01 00:28:30",1811854,1.043,16.87,6.824,0.921,7.716,104.2214,10.08,11.2,46.59,0,110.4,13.35,10.87,338.9
"2010-04-01 00:29:00",1811855,0.742,26.76,5.305,0.106,6.322,104.2139,10.06,11.09,46.41,0,110.4,13.38,10.85,348.8
"2010-04-01 00:29:30",1811856,0.675,28.35,8.09,0.093,6.364,104.1947,10.01,11.07,46.42,0,110.4,13.38,10.80,350.4
"2010-04-01 00:30:00",1811857,0.668,11.45,8.75,0.164,7.007,104.1922,10.01,11.07,46.45,0,110.4,13.38,10.79,333.5
"2010-04-01 00:30:30",1811858,0.202,0.275,12.9,0.163,7.865,104.1925,10.01,11.06,46.48,0,110.4,13.38,10.79,322.3
"2010-04-01 00:31:00",1811859,0.381,3.346,16.69,0.172,7.815,104.1877,9.99,11.05,46.56,0,110.4,13.38,10.78,325.3
"2010-04-01 00:31:30",1811860,0.48,352.8,16.63,0.311,8.09,104.1618,9.93,11,46.63,0,110.4,13.38,10.71,314.8
"2010-04-01 00:32:00",1811861,1.354,350.9,12.58,1.183,9.24,104.161,9.93,11.07,46.81,0,110.4,13.35,10.71,312.9
"2010-04-01 00:32:30",1811862,2.889,352.1,14.79,1.189,12.04,104.1589,9.92,11.21,47.02,0,110.4,13.34,10.71,314.1
"2010-04-01 00:33:00",1811863,1.793,345.8,13.17,1.23,9.54,104.1604,9.92,11.07,46.89,0,110.4,13.34,10.71,307.8
"2010-04-01 00:33:30",1811864,1.004,342.3,4.121,0.062,7.592,104.1618,9.93,10.96,46.82,0,110.4,13.38,10.71,304.3
"2010-04-01 00:34:00",1811865,1.782,6.433,17.7,1.101,8.55,104.1613,9.93,10.94,46.84,0,110.4,13.34,10.71,328.4
"2010-04-01 00:34:30",1811866,2.28,6.746,13.45,1.338,10.39,104.1616,9.93,11.13,47.12,0,110.4,13.34,10.71,328.7
"2010-04-01 00:35:00",1811867,2.558,352.6,12.85,1.373,9.99,104.1607,9.92,11.11,47.1,0,110.4,13.34,10.71,314.6
"2010-04-01 00:35:30",1811868,1.296,342,5.952,0.15,6.968,104.1619,9.93,10.93,46.9,0,110.4,13.38,10.71,304.0
"2010-04-01 00:36:00",1811869,1.212,340.7,3.821,0.139,7,104.1616,9.93,10.94,46.84,0,110.4,13.38,10.71,302.7
"2010-04-01 00:36:30",1811870,1.18,336.5,7.302,0.161,7.32,104.1508,9.9,10.92,46.82,0,110.4,13.38,10.69,298.5
"2010-04-01 00:37:00",1811871,1.661,2.137,18.96,1.443,9.15,104.1376,9.87,11.1,46.98,0,110.4,13.35,10.65,324.1
"2010-04-01 00:37:30",1811872,2.902,23.45,9.07,1.269,10.77,104.1316,9.85,11.18,47.09,0,110.4,13.35,10.64,345.5
"2010-04-01 00:38:00",1811873,1.308,15.63,6.216,0.797,8.52,104.1286,9.84,10.96,46.92,0,110.4,13.35,10.63,337.6
"2010-04-01 00:38:30",1811874,0.754,8.66,11.12,0.443,7.721,104.1286,9.84,10.91,46.88,0,110.4,13.39,10.63,330.7
"2010-04-01 00:39:00",1811875,1.049,5.505,16.67,0.397,7.657,104.1286,9.84,10.89,46.92,0,110.4,13.39,10.63,327.5
"2010-04-01 00:39:30",1811876,2.039,3.664,11.65,1.423,10.48,104.1286,9.84,11.05,47.08,0,110.4,13.35,10.63,325.7
"2010-04-01 00:40:00",1811877,0.933,357.7,10.42,0.326,8.65,104.1269,9.84,10.99,47.07,0,110.4,13.39,10.62,319.7
"2010-04-01 00:40:30",1811878,2.381,354,7.73,1.178,9.34,104.1153,9.81,10.84,46.95,0,110.5,13.35,10.60,316.0
"2010-04-01 00:41:00",1811879,2.108,2.644,12.76,1.16,10.45,104.0964,9.76,11.01,47.15,0,110.4,13.35,10.55,324.6
"2010-04-01 00:41:30",1811880,1.461,351,7.135,0.211,7.818,104.0947,9.76,10.84,47.08,0,110.4,13.39,10.54,313.0
"2010-04-01 00:42:00",1811881,3.137,351.2,8.55,1.331,10.35,104.0947,9.76,11.03,47.37,0,110.4,13.35,10.54,313.2
"2010-04-01 00:42:30",1811882,3.608,359.2,5.876,1.244,11.97,104.086,9.73,11.03,47.4,0,110.4,13.35,10.52,321.2
"2010-04-01 00:43:00",1811883,1.754,346.7,4.424,0.891,7.698,104.0736,9.7,10.79,47.25,0,110.4,13.35,10.49,308.7
"2010-04-01 00:43:30",1811884,1.536,346.8,2.625,0.134,7.296,104.0609,9.67,10.77,47.31,0,110.4,13.39,10.46,308.8
"2010-04-01 00:44:00",1811885,2.64,352.3,7.692,1.396,8.9,104.0595,9.67,10.78,47.39,0,110.4,13.35,10.45,314.3
"2010-04-01 00:44:30",1811886,2.853,354.1,7.908,1.12,9.62,104.0445,9.63,10.89,47.95,0,110.4,13.35,10.41,316.1
"2010-04-01 00:45:00",1811887,2.641,353.3,6.599,0.863,8.79,104.0271,9.58,10.72,47.97,0,110.4,13.35,10.37,315.3
"2010-04-01 00:45:30",1811888,3.085,352.3,6.598,1.118,9.52,104.0268,9.58,10.83,48.15,0,110.4,13.35,10.37,314.3
"2010-04-01 00:46:00",1811889,3.804,359.3,8.56,1.208,10.95,104.0082,9.53,10.93,48.35,0,110.4,13.35,10.32,321.3
"2010-04-01 00:46:30",1811890,3.431,5.863,7.383,1.347,11.3,103.9938,9.5,10.91,48.45,0,110.4,13.35,10.28,327.9
"2010-04-01 00:47:00",1811891,2.403,3.624,10.49,1.303,8.67,103.987,9.48,10.62,48.2,0,110.4,13.35,10.27,325.6
"2010-04-01 00:47:30",1811892,1.284,358.8,5.19,0.245,7.185,103.9594,9.41,10.59,48.18,0,110.4,13.38,10.20,320.8
"2010-04-01 00:48:00",1811893,1.491,357.4,3.515,0.201,7.088,103.9585,9.41,10.56,48.33,0,110.4,13.38,10.19,319.4
"2010-04-01 00:48:30",1811894,1.313,357.8,5.652,0.256,7.401,103.9366,9.35,10.51,48.5,0,110.4,13.38,10.14,319.8
"2010-04-01 00:49:00",1811895,1.173,359.5,6.376,0.29,8.11,103.9255,9.32,10.59,48.71,0,110.4,13.39,10.11,321.5
"2010-04-01 00:49:30",1811896,2.482,8.65,10.4,1.312,10.29,103.9196,9.31,10.54,48.74,0,110.4,13.35,10.09,330.6
"2010-04-01 00:50:00",1811897,1.419,357.6,4.006,0.218,8.25,103.8942,9.24,10.44,48.8,0,110.3,13.39,10.03,319.6
"2010-04-01 00:50:30",1811898,2.283,7.241,10.01,1.18,10.13,103.8917,9.24,10.54,48.97,0,110.4,13.35,10.02,329.2
"2010-04-01 00:51:00",1811899,2.225,4.732,9.05,1.358,10.28,103.8841,9.22,10.53,49.06,0,110.3,13.35,10.00,326.7
"2010-04-01 00:51:30",1811900,2.4,6.714,10.7,1.283,10.53,103.8632,9.16,10.57,49.19,0,110.3,13.35,9.95,328.7
"2010-04-01 00:52:00",1811901,1.414,7.262,9.05,0.947,8.04,103.8587,9.15,10.47,49.16,0,110.3,13.36,9.94,329.3
"2010-04-01 00:52:30",1811902,1.136,358,6.141,0.292,6.989,103.8608,9.16,10.32,49.14,0,110.3,13.39,9.94,320.0
"2010-04-01 00:53:00",1811903,1.526,351.2,5.714,0.254,6.909,103.8561,9.15,10.29,49.19,0,110.3,13.39,9.93,313.2
"2010-04-01 00:53:30",1811904,1.508,349.8,3.567,0.143,7.169,103.8404,9.11,10.26,49.18,0,110.3,13.4,9.89,311.8
"2010-04-01 00:54:00",1811905,1.769,356.7,11.34,0.883,8.21,103.8328,9.09,10.25,49.21,0,110.3,13.36,9.87,318.7
"2010-04-01 00:54:30",1811906,2.141,19.7,10.83,1.41,10.06,103.836,9.09,10.41,49.38,0,110.3,13.36,9.88,341.7
"2010-04-01 00:55:00",1811907,2.997,11.7,13.11,1.412,10.6,103.8395,9.1,10.35,49.3,0,110.3,13.36,9.89,333.7
"2010-04-01 00:55:30",1811908,2.474,12.57,20.59,1.198,9.74,103.8398,9.1,10.3,49.23,0,110.3,13.36,9.89,334.6
"2010-04-01 00:56:00",1811909,2.534,20.29,11.92,1.385,9.97,103.8389,9.1,10.31,49.19,0,110.3,13.36,9.89,342.3
"2010-04-01 00:56:30",1811910,1.161,3.318,7.12,0.285,7.704,103.8328,9.09,10.27,49.18,0,110.3,13.4,9.87,325.3
"2010-04-01 00:57:00",1811911,1.98,8,11.3,1.324,9.94,103.8321,9.08,10.26,49.21,0,110.3,13.36,9.87,330.0
"2010-04-01 00:57:30",1811912,1.287,359.2,6.474,0.888,8.72,103.8215,9.06,10.33,49.34,0,110.3,13.36,9.84,321.2
"2010-04-01 00:58:00",1811913,1.251,355.1,3.678,0.197,7.288,103.8239,9.06,10.13,49.21,0,110.3,13.4,9.85,317.1
"2010-04-01 00:58:30",1811914,1.117,357.3,5.798,0.172,7.483,103.8244,9.07,10.14,49.25,0,110.3,13.4,9.85,319.3
"2010-04-01 00:59:00",1811915,1.018,359.8,4.592,0.175,7.791,103.8214,9.06,10.12,49.19,0,110.3,13.4,9.84,321.8
"2010-04-01 00:59:30",1811916,1.327,359.3,4.865,0.848,8.94,103.8104,9.03,10.25,49.35,0,110.3,13.36,9.81,321.3
"2010-04-01 01:00:00",1811917,2.646,5.155,8.86,1.218,11.97,103.7929,8.98,10.33,49.48,0,110.3,13.37,9.77,327.2
"2010-04-01 01:00:30",1811918,1.682,353.6,5.216,0.971,9.58,103.7915,8.98,10.24,49.44,0,110.3,13.36,9.76,315.6
"2010-04-01 01:01:00",1811919,2.87,353.8,5.807,1.297,9.75,103.7903,8.98,10.17,49.4,0,110.3,13.36,9.76,315.8
"2010-04-01 01:01:30",1811920,1.687,349.8,1.73,0.141,7.533,103.7782,8.95,10.09,49.33,0,110.3,13.4,9.73,311.8
"2010-04-01 01:02:00",1811921,2.359,351.8,5.965,1.143,8.55,103.7689,8.92,10.04,49.31,0,110.3,13.36,9.71,313.8
"2010-04-01 01:02:30",1811922,1.965,351.3,4.088,0.86,7.984,103.7579,8.89,10.08,49.39,0,110.3,13.36,9.68,313.3
"2010-04-01 01:03:00",1811923,3.008,356,7.631,1.279,10.17,103.7576,8.89,10.08,49.48,0,110.3,13.36,9.68,318.0
"2010-04-01 01:03:30",1811924,1.836,348.9,1.471,0.078,8.01,103.7554,8.89,10,49.46,0,110.3,13.4,9.67,310.9
"2010-04-01 01:04:00",1811925,3.591,359.5,6.512,1.292,11.91,103.7294,8.82,10.22,49.73,0,110.3,13.36,9.60,321.5
"2010-04-01 01:04:30",1811926,3.398,357.3,7.179,1.28,11.49,103.7238,8.81,10.14,49.72,0,110.3,13.36,9.59,319.3
"2010-04-01 01:05:00",1811927,1.959,355.7,6.953,1.135,9.06,103.7226,8.8,10.02,49.69,0,110.3,13.36,9.59,317.7
"2010-04-01 01:05:30",1811928,2.01,2.156,7.293,1.398,9.34,103.7026,8.75,9.94,49.66,0,110.3,13.36,9.54,324.2
"2010-04-01 01:06:00",1811929,1.128,355.6,4.864,0.196,7.394,103.6899,8.72,9.86,49.69,0,110.3,13.4,9.50,317.6
"2010-04-01 01:06:30",1811930,1.109,356.4,4.412,0.211,7.541,103.6879,8.72,9.84,49.75,0,110.3,13.4,9.50,318.4
"2010-04-01 01:07:00",1811931,1.179,355.6,5.418,0.278,7.829,103.6642,8.66,9.85,49.89,0,110.3,13.4,9.44,317.6
"2010-04-01 01:07:30",1811932,2.596,0.025,9.4,1.306,10.54,103.6561,8.63,9.91,50.03,0,110.3,13.36,9.42,322.0
"2010-04-01 01:08:00",1811933,2.77,353,5.761,1.295,10.08,103.6493,8.62,9.89,50.11,0,110.3,13.37,9.40,315.0
"2010-04-01 01:08:30",1811934,2.736,353.9,6.102,1.291,10.86,103.6242,8.55,9.92,50.26,0,110.2,13.37,9.34,315.9
"2010-04-01 01:09:00",1811935,3.549,355.4,5.581,1.192,11.76,103.6222,8.55,9.87,50.3,0,110.2,13.38,9.33,317.4
"2010-04-01 01:09:30",1811936,2.136,351.1,5.592,1.111,9.24,103.6163,8.53,9.86,50.38,0,110.2,13.38,9.31,313.1
"2010-04-01 01:10:00",1811937,2.128,355.1,5.506,1.206,8.74,103.5942,8.48,9.67,50.31,0,110.2,13.38,9.26,317.1
"2010-04-01 01:10:30",1811938,1.221,354.1,4.22,0.174,7.443,103.5957,8.48,9.63,50.4,0,110.2,13.41,9.26,316.1
"2010-04-01 01:11:00",1811939,1.625,350.9,1.62,0.124,7.481,103.5867,8.46,9.61,50.51,0,110.2,13.41,9.24,312.9
"2010-04-01 01:11:30",1811940,1.367,353.3,2.991,0.201,7.916,103.5699,8.41,9.57,50.61,0,110.2,13.41,9.20,315.3
"2010-04-01 01:12:00",1811941,1.714,1.791,6.759,1.198,9.82,103.5741,8.42,9.69,50.83,0,110.2,13.38,9.21,323.8
"2010-04-01 01:12:30",1811942,3.172,8.01,8.42,1.209,12.27,103.5553,8.38,9.74,51.04,0,110.2,13.38,9.16,330.0
"2010-04-01 01:13:00",1811943,1.837,5.723,6.653,1.182,10.17,103.5499,8.36,9.68,51.12,0,110.2,13.39,9.14,327.7
"2010-04-01 01:13:30",1811944,2.867,12.47,7.251,1.236,11.32,103.5517,8.37,9.63,51.15,0,110.2,13.38,9.15,334.5
"2010-04-01 01:14:00",1811945,3.022,17.36,7.131,1.301,11.08,103.5275,8.31,9.59,51.22,0,110.2,13.38,9.09,339.4
"2010-04-01 01:14:30",1811946,1.308,11.4,2.699,0.196,7.596,103.5218,8.29,9.4,51.14,0,110.2,13.42,9.07,333.4
"2010-04-01 01:15:00",1811947,0.841,9.87,3.469,0.142,7.314,103.5165,8.28,9.39,51.18,0,110.2,13.42,9.06,331.9
"2010-04-01 01:15:30",1811948,0.746,9.43,5.738,0.133,7.389,103.4888,8.21,9.36,51.25,0,110.2,13.42,8.99,331.4
"2010-04-01 01:16:00",1811949,0.889,1.63,5.957,0.162,7.722,103.488,8.2,9.33,51.37,0,110.2,13.42,8.99,323.6
"2010-04-01 01:16:30",1811950,1.226,2.464,7.483,0.868,8.47,103.4809,8.19,9.3,51.49,0,110.2,13.39,8.97,324.5
"2010-04-01 01:17:00",1811951,1.751,6.769,9.27,1.289,10.3,103.4555,8.12,9.42,51.73,0,110.2,13.39,8.90,328.8
"2010-04-01 01:17:30",1811952,1.721,3.968,7.763,1.157,10.07,103.4541,8.12,9.43,51.84,0,110.2,13.39,8.90,326.0
"2010-04-01 01:18:00",1811953,1.894,3.929,6.179,1.225,9.36,103.4397,8.08,9.28,51.83,0,110.2,13.39,8.86,325.9
"2010-04-01 01:18:30",1811954,2.634,8.03,7.536,1.341,10.99,103.4202,8.03,9.42,52.07,0,110.2,13.39,8.81,330.0
"2010-04-01 01:19:00",1811955,2.679,13.68,7.208,1.406,10.68,103.42,8.03,9.39,52.13,0,110.2,13.39,8.81,335.7
"2010-04-01 01:19:30",1811956,1.281,7.147,3.492,0.193,7.65,103.4047,7.992,9.13,51.98,0,110.2,13.43,8.77,329.1
"2010-04-01 01:20:00",1811957,1.612,7.414,2.866,0.169,7.283,103.3867,7.946,9.12,52.06,0,110.2,13.42,8.73,329.4
"2010-04-01 01:20:30",1811958,1.821,9.61,4.043,0.468,7.713,103.3864,7.945,9.09,52.15,0,110.2,13.43,8.72,331.6
"2010-04-01 01:21:00",1811959,2.669,18.86,5.841,1.184,9.28,103.372,7.908,9.13,52.29,0,110.2,13.39,8.69,340.9
"2010-04-01 01:21:30",1811960,2.902,21.69,6.504,1.283,10.02,103.3531,7.86,9.16,52.37,0,110.1,13.39,8.64,343.7
"2010-04-01 01:22:00",1811961,1.82,15.82,3.442,0.156,8.31,103.3543,7.863,9.03,52.37,0,110.2,13.43,8.64,337.8
"2010-04-01 01:22:30",1811962,3.921,27.83,5.442,1.043,12.4,103.3535,7.861,9.25,52.69,0,110.2,13.39,8.64,349.8
"2010-04-01 01:23:00",1811963,3.898,28.85,6.334,1.028,12.47,103.3407,7.828,9.2,52.73,0,110.2,13.39,8.61,350.9
"2010-04-01 01:23:30",1811964,2.6,22.34,7.277,1.287,10.33,103.3353,7.814,9.07,52.67,0,110.1,13.39,8.59,344.3
"2010-04-01 01:24:00",1811965,1.468,15.95,2.429,0.143,7.675,103.3379,7.821,8.92,52.62,0,110.1,13.43,8.60,338.0
"2010-04-01 01:24:30",1811966,1.13,13.5,3.038,0.125,7.646,103.3329,7.809,8.89,52.71,0,110.1,13.43,8.59,335.5
"2010-04-01 01:25:00",1811967,1.642,10.72,6.052,0.945,9,103.3183,7.771,9.03,52.92,0,110.1,13.4,8.55,332.7
"2010-04-01 01:25:30",1811968,1.773,5.697,7.103,1.145,9.01,103.3172,7.768,8.95,52.96,0,110.1,13.4,8.55,327.7
"2010-04-01 01:26:00",1811969,1.317,0.357,5.652,0.238,8.36,103.3186,7.772,8.86,52.98,0,110.1,13.44,8.55,322.4
"2010-04-01 01:26:30",1811970,2.581,0.328,5.269,1.481,10.39,103.3028,7.732,8.9,53.18,0,110.1,13.41,8.51,322.3
"2010-04-01 01:27:00",1811971,3.175,0.488,5.825,1.428,11,103.2859,7.688,9.03,53.4,0,110.1,13.41,8.47,322.5
"2010-04-01 01:27:30",1811972,3.532,2.515,6.966,1.382,12.1,103.2859,7.688,9.03,53.57,0,110.1,13.41,8.47,324.5
"2010-04-01 01:28:00",1811973,2.467,355.9,6.63,1.012,9.45,103.2721,7.653,8.86,53.5,0,110.1,13.41,8.43,317.9
"2010-04-01 01:28:30",1811974,1.861,354.3,2.582,0.166,8.03,103.2523,7.602,8.74,53.52,0,110.1,13.44,8.38,316.3
"2010-04-01 01:29:00",1811975,3.141,357.4,7.102,1.14,9.47,103.252,7.602,8.78,53.66,0,110.1,13.41,8.38,319.4
"2010-04-01 01:29:30",1811976,2.821,1.569,8.18,1.228,9.85,103.2512,7.6,8.82,53.81,0,110.1,13.41,8.38,323.6
"2010-04-01 01:30:00",1811977,1.873,355.5,2.469,0.211,7.85,103.2382,7.566,8.68,53.75,0,110.1,13.44,8.34,317.5
"2010-04-01 01:30:30",1811978,3.076,359.7,8.05,1.215,10,103.2187,7.517,8.74,53.91,0,110.1,13.41,8.29,321.7
"2010-04-01 01:31:00",1811979,2.718,358.6,6.226,1.264,10.2,103.2181,7.515,8.8,54.05,0,110.1,13.41,8.29,320.6
"2010-04-01 01:31:30",1811980,3.689,1.887,7.281,1.307,11.69,103.2181,7.515,8.89,54.23,0,110.1,13.41,8.29,323.9
"2010-04-01 01:32:00",1811981,4.002,1.266,6.971,1.1,12.37,103.2173,7.513,8.86,54.28,0,110.1,13.41,8.29,323.3
"2010-04-01 01:32:30",1811982,3.716,353,6.622,1.171,9.9,103.2108,7.496,8.76,54.27,0,110.1,13.41,8.27,315.0
"2010-04-01 01:33:00",1811983,3.706,349.6,5.774,1.217,8.86,103.2004,7.47,8.62,54.18,0,110.1,13.41,8.25,311.6
"2010-04-01 01:33:30",1811984,3.669,345.8,5.574,0.968,8.7,103.1868,7.435,8.65,54.25,0,110.1,13.41,8.21,307.8
"2010-04-01 01:34:00",1811985,3.717,347.9,4.842,1.159,9.16,103.1843,7.429,8.66,54.28,0,110.1,13.41,8.21,309.9
"2010-04-01 01:34:30",1811986,3.639,342.6,5.411,0.996,8.7,103.1843,7.429,8.65,54.33,0,110.1,13.41,8.21,304.6
"2010-04-01 01:35:00",1811987,4.568,348.6,6.976,1.327,10.74,103.1852,7.431,8.66,54.36,0,110.1,13.41,8.21,310.6
"2010-04-01 01:35:30",1811988,4.618,347.6,6.417,1.346,11.53,103.186,7.433,8.79,54.57,0,110.1,13.41,8.21,309.6
"2010-04-01 01:36:00",1811989,4.899,350.2,6.037,1.153,12.38,103.1892,7.441,8.84,54.64,0,110.1,13.41,8.22,312.2
"2010-04-01 01:36:30",1811990,4.174,348.5,6.566,1.271,10.23,103.1921,7.449,8.69,54.51,0,110.1,13.41,8.23,310.5
"2010-04-01 01:37:00",1811991,2.988,342.9,0.957,0.472,7.6,103.1933,7.452,8.5,54.35,0,110.1,13.41,8.23,304.9
"2010-04-01 01:37:30",1811992,3.003,343.4,2.955,0.489,7.564,103.1919,7.448,8.5,54.4,0,110.1,13.41,8.23,305.4
"2010-04-01 01:38:00",1811993,3.662,349.2,7.737,1.192,10.1,103.1888,7.44,8.66,54.58,0,110.1,13.41,8.22,311.2
"2010-04-01 01:38:30",1811994,2.728,346.6,0.649,0.496,8.42,103.1809,7.42,8.51,54.46,0,110.1,13.41,8.20,308.6
"2010-04-01 01:39:00",1811995,3.788,352.6,6.816,1.315,10.72,103.1834,7.426,8.66,54.62,0,110.1,13.41,8.20,314.6
"2010-04-01 01:39:30",1811996,3.744,357.5,7.396,1.27,11.52,103.1795,7.416,8.68,54.67,0,110.1,13.41,8.19,319.5
"2010-04-01 01:40:00",1811997,4.133,0.391,5.203,1.24,12.36,103.1822,7.423,8.74,54.74,0,110.1,13.41,8.20,322.4
"2010-04-01 01:40:30",1811998,2.685,353.1,4.908,1.105,8.85,103.1851,7.431,8.53,54.56,0,110.1,13.41,8.21,315.1
"2010-04-01 01:41:00",1811999,1.778,354.7,4.235,0.172,7.581,103.1854,7.431,8.47,54.52,0,110.1,13.45,8.21,316.7
"2010-04-01 01:41:30",1812000,2.593,5.532,9.61,1.279,9,103.1854,7.431,8.49,54.52,0,110.1,13.42,8.21,327.5
"2010-04-01 01:42:00",1812001,2.425,8.17,7.657,1.335,10.03,103.1854,7.431,8.59,54.66,0,110.1,13.42,8.21,330.2
"2010-04-01 01:42:30",1812002,1.266,8.52,6.454,0.164,8.15,103.1854,7.431,8.47,54.53,0,110.1,13.46,8.21,330.5
"2010-04-01 01:43:00",1812003,1.129,4.966,5.759,0.127,8.27,103.1854,7.431,8.48,54.51,0,110.1,13.46,8.21,327.0
"2010-04-01 01:43:30",1812004,2.719,8.5,7.209,1.328,11.54,103.1854,7.431,8.73,54.79,0,110.1,13.42,8.21,330.5
"2010-04-01 01:44:00",1812005,2.058,4.493,7.658,1.295,10.99,103.1854,7.431,8.73,54.77,0,110.1,13.42,8.21,326.5
"2010-04-01 01:44:30",1812006,2.713,8.23,6.711,1.241,10.91,103.1854,7.431,8.55,54.61,0,110.1,13.42,8.21,330.2
"2010-04-01 01:45:00",1812007,2.468,6.369,8.52,1.369,9.9,103.1854,7.431,8.64,54.73,0,110,13.42,8.21,328.4
"2010-04-01 01:45:30",1812008,1.786,0.311,5.968,0.954,8.09,103.1854,7.431,8.46,54.57,0,110.1,13.42,8.21,322.3
"2010-04-01 01:46:00",1812009,2.003,0.579,6.012,1.074,8.47,103.1854,7.431,8.54,54.68,0,110,13.42,8.21,322.6
"2010-04-01 01:46:30",1812010,2.475,3.545,8.44,1.28,9.72,103.1839,7.428,8.5,54.66,0,110,13.42,8.21,325.5
"2010-04-01 01:47:00",1812011,1.933,353.6,2.754,0.222,7.882,103.1755,7.406,8.43,54.62,0,110,13.46,8.18,315.6
"2010-04-01 01:47:30",1812012,2.251,357.1,4.836,0.948,8.93,103.1662,7.382,8.52,54.76,0,110,13.43,8.16,319.1
"2010-04-01 01:48:00",1812013,3.607,9.49,6.484,1.193,12.27,103.1585,7.363,8.7,54.89,0,110,13.43,8.14,331.5
"2010-04-01 01:48:30",1812014,2.154,4.094,5.307,1.048,9.43,103.1537,7.35,8.47,54.71,0,110,13.43,8.13,326.1